contact:dominique.lefevre@mio.osupytheas.fr, maurice.libes@osupytheas.fr, didier.mallarino@osupytheas.fr
Project:EMSO http://www.emso-fr.org/EMSO-France
Depth: 2436.0 m
Title:EMSO Ligure Ouest : Data MII capteur AQUADOPP
Date,Latitude,Longitude,X_East,Y_North,Z_Up,Amplitude_X,Amplitude_Y,Amplitude_Z,Batterie,SoundSpeed,Heading,Pitch,Roll,Pressure,TIS,Speed,Direction
, degrees North, degrees East, m.s-1, m.s-1,m.s-1, 1, 1, 1, Volt, m.s-1, degree, degree, degree, dbar, degree_C, m.s-1, degree
2019-06-01T00:04:04,42.805,6.029,-0.034,-0.006,-0.01,100.0,102.0,98.0,13.4,1505.3,324.8,-0.8,1.9,2470.082,13.31,0.034,260.0
2019-06-01T00:07:05,42.805,6.029,-0.044,-0.001,-0.026,101.0,103.0,98.0,13.3,1505.3,326.4,-0.7,1.9,2470.038,13.31,0.044,268.7
2019-06-01T00:10:06,42.805,6.029,-0.051,-0.01,-0.063,100.0,103.0,98.0,13.4,1505.3,325.1,-0.8,1.8,2470.04,13.32,0.051,258.9
2019-06-01T00:13:07,42.805,6.029,-0.028,0.007,-0.002,100.0,103.0,97.0,13.4,1505.3,326.4,-0.8,1.9,2470.079,13.32,0.028,284.0
2019-06-01T00:16:08,42.805,6.029,-0.035,-0.006,-0.026,101.0,104.0,98.0,13.4,1505.3,322.9,-0.7,1.9,2470.039,13.32,0.035,260.3
2019-06-01T00:19:09,42.805,6.029,-0.006,-0.018,-0.014,101.0,104.0,99.0,13.3,1505.3,326.4,-0.8,1.8,2470.043,13.32,0.018,198.4
2019-06-01T00:22:10,42.805,6.029,-0.041,0.0,-0.014,102.0,105.0,98.0,13.3,1505.3,324.1,-0.7,1.8,2470.072,13.32,0.041,270.0
2019-06-01T00:25:11,42.805,6.029,-0.026,0.009,-0.035,102.0,105.0,98.0,13.3,1505.3,327.9,-0.7,1.9,2470.024,13.32,0.027,289.1
2019-06-01T00:28:12,42.805,6.029,-0.025,-0.006,-0.031,102.0,104.0,98.0,13.4,1505.3,324.1,-0.7,1.8,2470.045,13.32,0.025,256.5
2019-06-01T00:31:13,42.805,6.029,-0.024,0.0,-0.036,100.0,102.0,97.0,13.4,1505.3,324.2,-0.8,1.9,2470.023,13.32,0.024,270.0
2019-06-01T00:34:14,42.805,6.029,-0.036,0.0,-0.039,101.0,102.0,98.0,13.3,1505.3,327.4,-0.8,1.9,2470.005,13.32,0.036,270.0
2019-06-01T00:37:15,42.805,6.029,-0.047,0.007,-0.047,100.0,104.0,97.0,13.4,1505.3,326.1,-0.8,1.8,2470.033,13.32,0.047,278.5
2019-06-01T00:40:16,42.805,6.029,-0.024,-0.008,-0.028,101.0,103.0,98.0,13.4,1505.3,326.4,-0.7,1.8,2470.051,13.32,0.025,251.6
2019-06-01T00:43:17,42.805,6.029,-0.042,0.001,-0.014,101.0,102.0,98.0,13.4,1505.3,327.8,-0.8,1.9,2470.04,13.32,0.042,271.4
2019-06-01T00:46:18,42.805,6.029,-0.018,0.009,-0.03,100.0,103.0,97.0,13.4,1505.3,324.4,-0.7,1.9,2470.024,13.32,0.02,296.6
2019-06-01T00:49:19,42.805,6.029,-0.025,0.034,-0.032,101.0,102.0,98.0,13.4,1505.3,324.1,-0.8,1.8,2470.045,13.32,0.042,323.7
2019-06-01T00:52:20,42.805,6.029,-0.036,-0.007,-0.025,100.0,103.0,98.0,13.3,1505.3,327.0,-0.7,1.9,2470.063,13.32,0.036,259.0
2019-06-01T00:55:21,42.805,6.029,-0.03,-0.006,-0.032,102.0,103.0,99.0,13.4,1505.3,323.3,-0.8,1.8,2470.042,13.32,0.03,258.7
2019-06-01T00:58:22,42.805,6.029,-0.023,-0.002,-0.021,101.0,102.0,99.0,13.4,1505.3,324.7,-0.8,1.8,2470.023,13.32,0.023,265.0
2019-06-01T01:01:23,42.805,6.029,-0.021,-0.007,-0.029,101.0,103.0,98.0,13.4,1505.3,323.2,-0.7,1.9,2470.072,13.32,0.022,251.6
2019-06-01T01:04:24,42.805,6.029,-0.024,-0.003,-0.005,100.0,102.0,100.0,13.4,1505.3,325.9,-0.7,1.8,2469.988,13.32,0.024,262.9
2019-06-01T01:07:25,42.805,6.029,-0.043,0.025,-0.015,101.0,104.0,99.0,13.3,1505.3,323.4,-0.7,1.9,2470.069,13.32,0.049,300.2
2019-06-01T01:10:26,42.805,6.029,-0.034,0.003,-0.013,100.0,105.0,98.0,13.4,1505.3,324.2,-0.7,1.8,2470.06,13.32,0.034,275.0
2019-06-01T01:13:27,42.805,6.029,-0.02,0.005,-0.013,103.0,104.0,98.0,13.4,1505.3,323.8,-0.8,1.9,2470.031,13.32,0.02,284.0
2019-06-01T01:16:28,42.805,6.029,-0.017,-0.012,-0.034,101.0,103.0,98.0,13.4,1505.3,325.0,-0.7,1.9,2470.065,13.32,0.02,234.8
2019-06-01T01:19:29,42.805,6.029,-0.026,-0.01,-0.013,101.0,101.0,98.0,13.4,1505.3,325.6,-0.7,1.9,2469.993,13.32,0.027,249.0
2019-06-01T01:22:30,42.805,6.029,-0.039,0.001,-0.016,102.0,104.0,100.0,13.4,1505.3,325.8,-0.7,1.8,2470.037,13.32,0.039,271.5
2019-06-01T01:25:31,42.805,6.029,-0.02,0.022,-0.028,102.0,103.0,99.0,13.4,1505.3,327.1,-0.7,1.8,2470.017,13.32,0.029,317.7
2019-06-01T01:28:32,42.805,6.029,-0.019,-0.007,-0.011,102.0,103.0,98.0,13.4,1505.3,326.6,-0.8,1.8,2469.998,13.32,0.02,249.8
2019-06-01T01:31:33,42.805,6.029,-0.034,0.005,-0.027,100.0,104.0,99.0,13.4,1505.3,327.6,-0.7,1.9,2470.071,13.32,0.034,278.4
2019-06-01T01:34:34,42.805,6.029,-0.035,-0.008,-0.032,100.0,102.0,98.0,13.4,1505.3,326.6,-0.8,1.9,2470.025,13.32,0.035,257.1
2019-06-01T01:37:35,42.805,6.029,-0.027,-0.009,-0.013,103.0,104.0,99.0,13.4,1505.3,326.9,-0.8,1.9,2470.028,13.32,0.028,251.6
2019-06-01T01:40:36,42.805,6.029,-0.026,-0.002,-0.024,102.0,104.0,99.0,13.4,1505.3,324.7,-0.7,1.9,2470.024,13.32,0.026,265.6
2019-06-01T01:43:37,42.805,6.029,-0.055,0.002,-0.036,100.0,103.0,98.0,13.4,1505.3,325.1,-0.7,1.9,2470.023,13.32,0.055,272.1
2019-06-01T01:46:38,42.805,6.029,-0.034,0.009,-0.013,100.0,103.0,98.0,13.3,1505.3,323.3,-0.8,1.8,2470.054,13.32,0.035,284.8
2019-06-01T01:49:39,42.805,6.029,-0.035,-0.013,-0.015,101.0,102.0,99.0,13.4,1505.3,324.3,-0.8,1.8,2470.026,13.32,0.037,249.6
2019-06-01T01:52:40,42.805,6.029,-0.042,-0.006,-0.04,100.0,103.0,98.0,13.4,1505.3,323.5,-0.7,1.9,2470.045,13.32,0.042,261.9
2019-06-01T01:55:41,42.805,6.029,-0.034,-0.012,-0.036,100.0,103.0,99.0,13.4,1505.3,324.4,-0.7,1.8,2470.075,13.32,0.036,250.6
2019-06-01T01:58:42,42.805,6.029,-0.025,0.014,-0.012,102.0,102.0,98.0,13.4,1505.3,324.4,-0.7,1.9,2470.089,13.32,0.028,299.3
2019-06-01T02:01:43,42.805,6.029,-0.051,0.017,-0.015,100.0,104.0,98.0,13.4,1505.3,325.3,-0.8,1.8,2470.061,13.32,0.053,288.4
2019-06-01T02:04:44,42.805,6.029,-0.022,-0.004,-0.027,102.0,104.0,97.0,13.4,1505.3,323.8,-0.7,1.8,2470.059,13.32,0.022,259.7
2019-06-01T02:07:45,42.805,6.029,-0.02,-0.006,-0.032,102.0,103.0,97.0,13.4,1505.3,326.9,-0.8,1.8,2470.063,13.32,0.02,253.3
2019-06-01T02:10:46,42.805,6.029,-0.037,0.016,-0.003,101.0,105.0,97.0,13.3,1505.3,325.3,-0.8,1.8,2470.076,13.32,0.04,293.4
2019-06-01T02:13:47,42.805,6.029,-0.051,0.01,-0.041,100.0,102.0,97.0,13.3,1505.3,328.0,-0.7,1.8,2470.063,13.32,0.051,281.1
2019-06-01T02:16:48,42.805,6.029,-0.024,0.006,-0.033,100.0,103.0,97.0,13.4,1505.3,326.4,-0.7,1.9,2470.07,13.32,0.024,284.0
2019-06-01T02:19:49,42.805,6.029,-0.043,-0.004,-0.028,101.0,103.0,99.0,13.4,1505.3,327.9,-0.8,1.9,2470.09,13.32,0.043,264.7
2019-06-01T02:22:50,42.805,6.029,-0.043,0.011,-0.005,101.0,104.0,99.0,13.4,1505.3,324.5,-0.7,1.9,2470.11,13.32,0.044,284.3
2019-06-01T02:25:51,42.805,6.029,-0.07,-0.011,-0.043,101.0,102.0,98.0,13.4,1505.3,322.6,-0.8,1.8,2470.066,13.32,0.07,261.1
2019-06-01T02:28:52,42.805,6.029,-0.04,0.0,-0.032,100.0,103.0,98.0,13.4,1505.3,324.9,-0.8,1.9,2470.051,13.32,0.04,270.0
2019-06-01T02:31:53,42.805,6.029,-0.058,0.016,-0.023,101.0,102.0,97.0,13.4,1505.3,322.8,-0.7,1.8,2470.118,13.32,0.06,285.4
2019-06-01T02:34:54,42.805,6.029,-0.044,0.002,-0.01,100.0,105.0,98.0,13.4,1505.3,324.0,-0.7,1.8,2470.052,13.32,0.044,272.6
2019-06-01T02:37:55,42.805,6.029,-0.05,0.003,-0.034,102.0,103.0,97.0,13.4,1505.3,323.2,-0.7,1.9,2470.104,13.32,0.05,273.4
2019-06-01T02:40:56,42.805,6.029,-0.026,0.033,0.011,102.0,104.0,97.0,13.3,1505.3,324.7,-0.7,1.8,2470.107,13.32,0.042,321.8
2019-06-01T02:43:57,42.805,6.029,-0.032,0.008,-0.032,102.0,106.0,99.0,13.4,1505.3,323.6,-0.7,1.8,2470.082,13.32,0.032,284.0
2019-06-01T02:46:58,42.805,6.029,-0.024,-0.001,0.0,102.0,104.0,100.0,13.4,1505.3,327.0,-0.8,1.9,2470.076,13.33,0.024,267.6
2019-06-01T02:49:59,42.805,6.029,-0.039,0.003,-0.003,99.0,104.0,99.0,13.4,1505.3,326.5,-0.7,1.8,2470.122,13.33,0.039,274.4
2019-06-01T02:53:00,42.805,6.029,-0.042,0.004,-0.036,102.0,104.0,99.0,13.3,1505.3,325.8,-0.7,1.9,2470.089,13.32,0.042,275.4
2019-06-01T02:56:01,42.805,6.029,-0.018,0.003,-0.012,102.0,104.0,99.0,13.3,1505.3,324.1,-0.8,1.9,2470.104,13.32,0.018,279.5
2019-06-01T02:59:02,42.805,6.029,-0.023,0.022,-0.039,103.0,103.0,98.0,13.4,1505.3,326.7,-0.8,1.8,2470.08,13.32,0.031,313.7
2019-06-01T03:02:03,42.805,6.029,-0.045,0.016,-0.011,102.0,103.0,98.0,13.4,1505.3,326.5,-0.7,1.9,2470.119,13.32,0.047,289.6
2019-06-01T03:05:04,42.805,6.029,-0.035,0.011,-0.043,99.0,105.0,99.0,13.3,1505.3,326.1,-0.8,1.9,2470.103,13.32,0.036,287.4
2019-06-01T03:08:05,42.805,6.029,-0.059,-0.004,-0.019,102.0,104.0,98.0,13.3,1505.3,325.4,-0.7,1.9,2470.082,13.32,0.059,266.1
2019-06-01T03:11:06,42.805,6.029,-0.053,0.008,-0.007,101.0,104.0,97.0,13.3,1505.3,325.3,-0.8,1.9,2470.116,13.32,0.053,278.6
2019-06-01T03:14:07,42.805,6.029,-0.037,0.028,-0.008,102.0,104.0,98.0,13.3,1505.3,325.3,-0.8,1.8,2470.065,13.32,0.046,307.1
2019-06-01T03:17:08,42.805,6.029,-0.021,0.023,-0.01,100.0,104.0,97.0,13.4,1505.3,326.3,-0.8,1.8,2470.149,13.32,0.031,317.6
2019-06-01T03:20:09,42.805,6.029,-0.011,0.004,-0.02,102.0,105.0,98.0,13.4,1505.3,326.2,-0.7,1.8,2470.132,13.33,0.011,290.0
2019-06-01T03:23:10,42.805,6.029,-0.018,0.008,-0.006,101.0,103.0,97.0,13.4,1505.3,327.8,-0.7,1.9,2470.123,13.33,0.019,294.0
2019-06-01T03:26:11,42.805,6.029,-0.029,0.004,0.009,101.0,104.0,99.0,13.4,1505.3,325.5,-0.7,1.8,2470.131,13.33,0.029,277.8
2019-06-01T03:29:12,42.805,6.029,-0.027,0.025,-0.041,102.0,105.0,97.0,13.4,1505.3,325.8,-0.8,1.9,2470.14,13.33,0.036,312.8
2019-06-01T03:32:13,42.805,6.029,-0.035,0.009,-0.012,102.0,102.0,99.0,13.4,1505.3,323.2,-0.7,1.8,2470.133,13.33,0.036,284.4
2019-06-01T03:35:14,42.805,6.029,-0.03,0.02,-0.007,99.0,105.0,99.0,13.4,1505.3,325.9,-0.7,1.8,2470.143,13.32,0.036,303.7
2019-06-01T03:38:15,42.805,6.029,-0.022,0.003,-0.003,101.0,107.0,99.0,13.4,1505.3,324.5,-0.7,1.9,2470.145,13.33,0.022,277.8
2019-06-01T03:41:16,42.805,6.029,-0.003,0.007,-0.018,101.0,106.0,99.0,13.4,1505.3,325.0,-0.8,1.8,2470.204,13.33,0.007,336.8
2019-06-01T03:44:17,42.805,6.029,-0.027,0.016,-0.04,102.0,105.0,99.0,13.4,1505.3,322.8,-0.8,1.8,2470.107,13.33,0.031,300.7
2019-06-01T03:47:18,42.805,6.029,-0.013,0.013,-0.023,102.0,106.0,98.0,13.4,1505.3,326.6,-0.7,1.9,2470.135,13.33,0.018,315.0
2019-06-01T03:50:19,42.805,6.029,-0.005,0.01,-0.018,101.0,106.0,99.0,13.4,1505.3,323.9,-0.7,1.9,2470.13,13.33,0.011,333.4
2019-06-01T03:53:20,42.805,6.029,-0.028,0.003,-0.029,101.0,102.0,98.0,13.4,1505.3,326.1,-0.8,1.8,2470.143,13.33,0.028,276.1
2019-06-01T03:56:21,42.805,6.029,-0.038,0.009,-0.019,100.0,103.0,99.0,13.3,1505.3,326.3,-0.8,1.9,2470.184,13.32,0.039,283.3
2019-06-01T03:59:22,42.805,6.029,-0.043,0.018,-0.025,99.0,102.0,97.0,13.4,1505.3,324.2,-0.8,1.9,2470.155,13.32,0.046,292.7
2019-06-01T04:02:23,42.805,6.029,-0.034,0.008,-0.047,100.0,102.0,98.0,13.4,1505.3,323.9,-0.7,1.8,2470.158,13.32,0.034,283.2
2019-06-01T04:05:24,42.805,6.029,-0.054,0.007,-0.05,101.0,102.0,97.0,13.3,1505.3,326.4,-0.8,1.9,2470.155,13.32,0.054,277.4
2019-06-01T04:08:25,42.805,6.029,-0.044,0.006,-0.039,100.0,103.0,97.0,13.4,1505.3,325.8,-0.7,1.9,2470.186,13.32,0.044,277.8
2019-06-01T04:11:26,42.805,6.029,-0.039,-0.01,0.003,100.0,103.0,97.0,13.3,1505.3,322.9,-0.7,1.8,2470.149,13.32,0.04,255.6
2019-06-01T04:14:27,42.805,6.029,-0.028,0.008,-0.027,100.0,103.0,98.0,13.3,1505.3,325.1,-0.7,1.8,2470.141,13.32,0.029,285.9
2019-06-01T04:17:28,42.805,6.029,-0.039,-0.002,-0.048,99.0,103.0,98.0,13.4,1505.3,325.7,-0.7,1.8,2470.173,13.32,0.039,267.1
2019-06-01T04:20:29,42.805,6.029,-0.023,-0.001,-0.004,101.0,104.0,98.0,13.4,1505.3,324.8,-0.8,1.8,2470.191,13.32,0.023,267.5
2019-06-01T04:23:30,42.805,6.029,-0.059,-0.005,-0.001,102.0,103.0,98.0,13.4,1505.3,324.4,-0.8,1.9,2470.115,13.32,0.059,265.2
2019-06-01T04:26:31,42.805,6.029,-0.05,0.005,-0.052,100.0,104.0,97.0,13.4,1505.3,325.5,-0.8,1.9,2470.174,13.32,0.05,275.7
2019-06-01T04:29:32,42.805,6.029,-0.035,-0.005,-0.015,101.0,103.0,98.0,13.4,1505.3,324.8,-0.7,1.9,2470.168,13.32,0.035,261.9
2019-06-01T04:32:33,42.805,6.029,-0.031,0.0,-0.043,101.0,103.0,98.0,13.3,1505.3,327.7,-0.7,1.9,2470.128,13.32,0.03,270.0
2019-06-01T04:35:34,42.805,6.029,-0.018,0.004,-0.035,100.0,103.0,96.0,13.4,1505.3,326.0,-0.7,1.8,2470.23,13.32,0.018,282.5
2019-06-01T04:38:35,42.805,6.029,-0.042,0.009,-0.047,101.0,103.0,99.0,13.4,1505.3,326.8,-0.8,1.8,2470.163,13.32,0.042,282.1
2019-06-01T04:41:36,42.805,6.029,-0.034,0.007,-0.018,100.0,104.0,98.0,13.4,1505.3,324.6,-0.7,1.8,2470.177,13.32,0.034,281.6
2019-06-01T04:44:37,42.805,6.029,-0.013,-0.001,-0.019,101.0,103.0,98.0,13.4,1505.3,326.9,-0.8,1.8,2470.157,13.32,0.013,265.6
2019-06-01T04:47:38,42.805,6.029,-0.034,0.007,0.005,100.0,102.0,98.0,13.4,1505.3,326.9,-0.8,1.8,2470.189,13.32,0.034,281.6
2019-06-01T04:50:39,42.805,6.029,-0.045,0.026,-0.033,99.0,102.0,97.0,13.4,1505.3,326.5,-0.7,1.9,2470.164,13.32,0.051,300.0
2019-06-01T04:53:40,42.805,6.029,-0.028,0.011,-0.006,100.0,104.0,98.0,13.4,1505.3,325.0,-0.8,1.9,2470.241,13.32,0.03,291.4
2019-06-01T04:56:41,42.805,6.029,-0.04,0.017,-0.027,99.0,103.0,97.0,13.4,1505.3,324.2,-0.7,1.8,2470.141,13.32,0.043,293.0
2019-06-01T04:59:42,42.805,6.029,-0.034,0.014,-0.007,102.0,104.0,98.0,13.4,1505.3,324.5,-0.7,1.8,2470.183,13.32,0.036,292.4
2019-06-01T05:02:43,42.805,6.029,-0.017,0.022,-0.011,101.0,105.0,98.0,13.4,1505.3,325.8,-0.7,1.9,2470.176,13.32,0.027,322.3
2019-06-01T05:05:44,42.805,6.029,-0.018,-0.017,-0.004,100.0,103.0,100.0,13.4,1505.3,326.0,-0.8,1.8,2470.148,13.32,0.024,226.6
2019-06-01T05:08:45,42.805,6.029,-0.065,-0.006,-0.038,101.0,103.0,98.0,13.4,1505.3,323.4,-0.8,1.9,2470.182,13.32,0.065,264.7
2019-06-01T05:11:46,42.805,6.029,-0.026,0.0,-0.03,102.0,104.0,98.0,13.4,1505.3,326.3,-0.7,1.8,2470.209,13.32,0.026,270.0
2019-06-01T05:14:47,42.805,6.029,-0.026,-0.011,-0.061,102.0,104.0,98.0,13.4,1505.3,325.5,-0.8,1.8,2470.188,13.32,0.028,247.1
2019-06-01T05:17:48,42.805,6.029,-0.036,0.0,-0.043,100.0,102.0,98.0,13.4,1505.3,325.4,-0.7,1.9,2470.19,13.32,0.036,270.0
2019-06-01T05:20:49,42.805,6.029,-0.03,0.011,-0.038,103.0,102.0,97.0,13.4,1505.3,326.4,-0.8,1.8,2470.159,13.32,0.031,290.1
2019-06-01T05:23:50,42.805,6.029,-0.025,0.011,-0.044,101.0,102.0,97.0,13.4,1505.3,325.5,-0.7,1.8,2470.197,13.32,0.027,293.7
2019-06-01T05:26:51,42.805,6.029,-0.015,0.0,0.012,101.0,104.0,98.0,13.4,1505.3,323.3,-0.7,1.8,2470.208,13.32,0.015,270.0
2019-06-01T05:29:52,42.805,6.029,-0.031,-0.02,-0.014,99.0,105.0,99.0,13.3,1505.3,325.0,-0.8,1.9,2470.188,13.32,0.036,237.2
2019-06-01T05:32:53,42.805,6.029,-0.029,-0.002,-0.006,101.0,103.0,98.0,13.4,1505.3,323.8,-0.8,1.9,2470.224,13.32,0.029,266.1
2019-06-01T05:35:54,42.805,6.029,-0.048,-0.011,-0.01,100.0,103.0,97.0,13.4,1505.3,326.0,-0.8,1.9,2470.209,13.32,0.049,257.1
2019-06-01T05:38:55,42.805,6.029,-0.036,0.007,-0.01,101.0,102.0,98.0,13.3,1505.3,326.4,-0.8,1.8,2470.149,13.32,0.036,281.0
2019-06-01T05:41:56,42.805,6.029,-0.034,-0.007,-0.022,99.0,103.0,98.0,13.3,1505.3,325.3,-0.7,1.8,2470.2,13.32,0.034,258.4
2019-06-01T05:44:57,42.805,6.029,-0.064,-0.003,-0.029,100.0,102.0,98.0,13.4,1505.3,326.4,-0.7,1.8,2470.139,13.32,0.064,267.3
2019-06-01T05:47:58,42.805,6.029,-0.031,-0.001,-0.037,99.0,102.0,97.0,13.3,1505.3,327.2,-0.7,1.9,2470.192,13.32,0.031,268.2
2019-06-01T05:50:59,42.805,6.029,-0.036,0.014,-0.012,99.0,105.0,98.0,13.4,1505.3,323.1,-0.7,1.9,2470.219,13.32,0.038,291.2
2019-06-01T05:54:00,42.805,6.029,-0.027,-0.017,-0.009,100.0,104.0,98.0,13.4,1505.3,325.4,-0.7,1.9,2470.154,13.32,0.031,237.8
2019-06-01T05:57:01,42.805,6.029,-0.031,0.009,-0.03,101.0,104.0,97.0,13.4,1505.3,322.6,-0.7,1.9,2470.191,13.32,0.032,286.2
2019-06-01T06:00:02,42.805,6.029,-0.048,0.008,-0.001,100.0,102.0,98.0,13.4,1505.3,325.0,-0.8,1.8,2470.184,13.32,0.048,279.5
2019-06-01T06:03:03,42.805,6.029,-0.006,0.03,-0.019,100.0,104.0,97.0,13.3,1505.3,326.1,-0.8,1.9,2470.197,13.32,0.03,348.7
2019-06-01T06:06:04,42.805,6.029,-0.007,0.001,0.008,100.0,103.0,98.0,13.4,1505.3,323.5,-0.7,1.9,2470.182,13.32,0.007,278.1
2019-06-01T06:09:05,42.805,6.029,-0.019,0.007,-0.038,101.0,104.0,98.0,13.4,1505.3,326.5,-0.7,1.8,2470.207,13.32,0.02,290.2
2019-06-01T06:12:06,42.805,6.029,-0.045,-0.003,-0.031,101.0,103.0,98.0,13.3,1505.3,328.3,-0.8,1.8,2470.203,13.32,0.045,266.2
2019-06-01T06:15:07,42.805,6.029,-0.034,0.007,-0.014,101.0,102.0,99.0,13.4,1505.3,323.2,-0.7,1.8,2470.167,13.32,0.034,281.6
2019-06-01T06:18:08,42.805,6.029,-0.012,0.008,-0.034,101.0,103.0,98.0,13.3,1505.3,325.6,-0.7,1.9,2470.198,13.32,0.014,303.7
2019-06-01T06:21:09,42.805,6.029,-0.044,0.008,-0.03,100.0,102.0,99.0,13.3,1505.3,323.3,-0.7,1.8,2470.2,13.32,0.044,280.3
2019-06-01T06:24:10,42.805,6.029,-0.04,0.0,-0.016,100.0,100.0,97.0,13.4,1505.3,323.8,-0.8,1.8,2470.19,13.32,0.04,270.0
2019-06-01T06:27:11,42.805,6.029,-0.049,0.001,-0.021,100.0,101.0,98.0,13.3,1505.3,323.4,-0.7,1.9,2470.149,13.32,0.049,271.2
2019-06-01T06:30:12,42.805,6.029,-0.03,0.006,-0.033,101.0,100.0,97.0,13.4,1505.3,324.7,-0.8,1.8,2470.147,13.32,0.03,281.3
2019-06-01T06:33:13,42.805,6.029,-0.024,-0.002,-0.034,99.0,102.0,98.0,13.4,1505.3,323.1,-0.7,1.8,2470.184,13.32,0.024,265.2
2019-06-01T06:36:14,42.805,6.029,-0.017,-0.013,-0.001,101.0,101.0,97.0,13.3,1505.3,324.4,-0.8,1.8,2470.167,13.32,0.021,232.6
2019-06-01T06:39:15,42.805,6.029,-0.035,0.003,0.0,100.0,102.0,98.0,13.4,1505.3,328.2,-0.8,1.8,2470.221,13.32,0.035,274.9
2019-06-01T06:42:16,42.805,6.029,-0.023,0.015,0.01,100.0,103.0,97.0,13.4,1505.3,325.2,-0.8,1.9,2470.163,13.32,0.027,303.1
2019-06-01T06:45:17,42.805,6.029,-0.027,0.0,-0.021,100.0,101.0,97.0,13.4,1505.3,324.8,-0.7,1.8,2470.167,13.32,0.026,270.0
2019-06-01T06:48:18,42.805,6.029,-0.022,-0.008,-0.042,99.0,102.0,98.0,13.4,1505.3,324.1,-0.7,1.8,2470.173,13.32,0.023,250.0
2019-06-01T06:51:19,42.805,6.029,-0.025,-0.015,-0.02,101.0,103.0,98.0,13.3,1505.3,326.6,-0.7,1.8,2470.151,13.32,0.029,239.0
2019-06-01T06:54:20,42.805,6.029,-0.022,-0.002,-0.025,101.0,102.0,97.0,13.4,1505.3,323.6,-0.8,1.8,2470.16,13.32,0.022,264.8
2019-06-01T06:57:21,42.805,6.029,-0.012,-0.015,-0.021,99.0,101.0,98.0,13.4,1505.3,326.5,-0.7,1.9,2470.179,13.32,0.019,218.7
2019-06-01T07:00:22,42.805,6.029,-0.033,-0.003,-0.016,101.0,103.0,99.0,13.4,1505.3,328.2,-0.7,1.8,2470.157,13.32,0.033,264.8
2019-06-01T07:03:23,42.805,6.029,-0.027,-0.014,-0.011,98.0,103.0,99.0,13.3,1505.3,326.9,-0.7,1.9,2470.159,13.32,0.03,242.6
2019-06-01T07:06:24,42.805,6.029,-0.044,-0.006,-0.029,100.0,101.0,98.0,13.4,1505.3,327.3,-0.7,1.9,2470.17,13.32,0.044,262.2
2019-06-01T07:09:25,42.805,6.029,-0.036,-0.009,-0.028,99.0,101.0,98.0,13.4,1505.3,324.4,-0.8,1.9,2470.146,13.32,0.037,256.0
2019-06-01T07:12:26,42.805,6.029,-0.05,-0.011,0.024,100.0,103.0,98.0,13.3,1505.3,325.2,-0.7,1.9,2470.178,13.32,0.051,257.6
2019-06-01T07:15:27,42.805,6.029,-0.037,0.005,-0.015,99.0,102.0,98.0,13.4,1505.3,323.1,-0.7,1.9,2470.194,13.32,0.037,277.7
2019-06-01T07:18:28,42.805,6.029,-0.026,-0.017,-0.049,100.0,102.0,97.0,13.4,1505.3,325.2,-0.7,1.9,2470.147,13.32,0.031,236.8
2019-06-01T07:21:29,42.805,6.029,-0.063,-0.007,-0.042,101.0,101.0,99.0,13.4,1505.3,323.4,-0.7,1.8,2470.156,13.32,0.063,263.7
2019-06-01T07:24:30,42.805,6.029,-0.015,-0.002,0.005,102.0,102.0,98.0,13.4,1505.3,324.7,-0.7,1.9,2470.139,13.32,0.015,262.4
2019-06-01T07:27:31,42.805,6.029,-0.031,0.009,-0.029,100.0,101.0,97.0,13.4,1505.3,326.5,-0.8,1.9,2470.134,13.32,0.032,286.2
2019-06-01T07:30:32,42.805,6.029,-0.022,-0.012,-0.034,100.0,103.0,98.0,13.3,1505.3,326.4,-0.8,1.9,2470.14,13.32,0.025,241.4
2019-06-01T07:33:33,42.805,6.029,-0.038,-0.013,-0.034,100.0,102.0,98.0,13.4,1505.3,327.4,-0.8,1.9,2470.154,13.32,0.04,251.1
2019-06-01T07:36:34,42.805,6.029,-0.043,-0.003,-0.043,102.0,102.0,98.0,13.4,1505.3,326.2,-0.7,1.8,2470.135,13.32,0.043,266.0
2019-06-01T07:39:35,42.805,6.029,-0.05,0.012,-0.046,102.0,101.0,98.0,13.3,1505.3,327.5,-0.8,1.9,2470.074,13.32,0.051,283.5
2019-06-01T07:42:36,42.805,6.029,-0.029,-0.003,-0.048,101.0,103.0,97.0,13.4,1505.3,327.1,-0.7,1.8,2470.138,13.32,0.029,264.1
2019-06-01T07:45:37,42.805,6.029,-0.018,-0.01,-0.006,101.0,102.0,97.0,13.4,1505.3,328.2,-0.7,1.8,2470.094,13.32,0.02,240.9
2019-06-01T07:48:38,42.805,6.029,-0.046,-0.026,-0.008,101.0,102.0,98.0,13.3,1505.3,325.6,-0.7,1.9,2470.139,13.32,0.052,240.5
2019-06-01T07:51:39,42.805,6.029,-0.035,-0.007,-0.002,101.0,102.0,98.0,13.3,1505.3,327.4,-0.7,1.8,2470.112,13.32,0.035,258.7
2019-06-01T07:54:40,42.805,6.029,-0.037,-0.024,-0.013,100.0,103.0,101.0,13.4,1505.3,326.0,-0.8,1.8,2470.163,13.32,0.044,237.0
2019-06-01T07:57:41,42.805,6.029,-0.03,-0.011,-0.024,100.0,103.0,98.0,13.3,1505.3,327.4,-0.8,1.9,2470.16,13.32,0.031,249.9
2019-06-01T08:00:42,42.805,6.029,-0.024,-0.014,-0.027,100.0,102.0,98.0,13.3,1505.3,326.1,-0.7,1.8,2470.103,13.32,0.027,239.7
2019-06-01T08:03:43,42.805,6.029,-0.034,-0.021,-0.058,102.0,102.0,97.0,13.4,1505.3,328.1,-0.7,1.9,2470.118,13.32,0.039,238.3
2019-06-01T08:06:44,42.805,6.029,-0.009,0.001,0.015,102.0,103.0,98.0,13.3,1505.3,326.4,-0.8,1.8,2470.123,13.32,0.009,276.3
2019-06-01T08:09:45,42.805,6.029,-0.033,-0.01,-0.055,101.0,103.0,96.0,13.3,1505.3,325.2,-0.8,1.8,2470.171,13.32,0.034,253.1
2019-06-01T08:12:46,42.805,6.029,-0.012,-0.016,0.005,101.0,103.0,97.0,13.3,1505.3,323.5,-0.8,1.9,2470.127,13.32,0.02,216.9
2019-06-01T08:15:47,42.805,6.029,-0.008,-0.014,-0.027,102.0,103.0,97.0,13.3,1505.3,325.4,-0.7,1.9,2470.132,13.32,0.016,209.7
2019-06-01T08:18:48,42.805,6.029,-0.051,-0.022,-0.055,101.0,102.0,97.0,13.4,1505.3,326.8,-0.8,1.9,2470.108,13.32,0.055,246.7
2019-06-01T08:21:49,42.805,6.029,-0.043,0.006,-0.007,100.0,103.0,97.0,13.4,1505.3,326.5,-0.8,1.8,2470.111,13.32,0.043,277.9
2019-06-01T08:24:50,42.805,6.029,-0.006,-0.002,-0.005,100.0,101.0,97.0,13.4,1505.3,325.4,-0.7,1.8,2470.097,13.32,0.006,251.6
2019-06-01T08:27:51,42.805,6.029,-0.028,-0.014,-0.027,99.0,102.0,98.0,13.3,1505.3,325.8,-0.8,1.9,2470.14,13.32,0.031,243.4
2019-06-01T08:30:52,42.805,6.029,-0.024,-0.006,-0.023,102.0,101.0,97.0,13.4,1505.3,325.1,-0.8,1.8,2470.089,13.32,0.024,256.0
2019-06-01T08:33:53,42.805,6.029,-0.02,-0.011,-0.048,100.0,101.0,98.0,13.4,1505.3,326.6,-0.7,1.9,2470.142,13.32,0.022,241.2
2019-06-01T08:36:54,42.805,6.029,-0.013,-0.005,-0.012,100.0,102.0,98.0,13.4,1505.3,327.0,-0.7,1.8,2470.088,13.32,0.013,249.0
2019-06-01T08:39:55,42.805,6.029,-0.038,-0.002,-0.014,101.0,102.0,98.0,13.4,1505.3,326.2,-0.8,1.8,2470.108,13.32,0.038,267.0
2019-06-01T08:42:56,42.805,6.029,-0.038,0.008,-0.041,102.0,102.0,97.0,13.4,1505.3,325.5,-0.7,1.8,2470.102,13.32,0.038,281.9
2019-06-01T08:45:57,42.805,6.029,-0.047,0.0,-0.024,100.0,102.0,98.0,13.4,1505.3,326.1,-0.7,1.9,2470.108,13.32,0.047,270.0
2019-06-01T08:48:58,42.805,6.029,-0.021,-0.005,-0.019,100.0,101.0,99.0,13.4,1505.3,326.6,-0.8,1.9,2470.095,13.32,0.021,256.6
2019-06-01T08:51:59,42.805,6.029,-0.042,-0.017,-0.032,101.0,102.0,97.0,13.4,1505.3,325.8,-0.7,1.9,2470.138,13.32,0.045,248.0
2019-06-01T08:55:00,42.805,6.029,-0.035,-0.04,-0.03,101.0,102.0,98.0,13.4,1505.3,322.8,-0.8,1.9,2470.055,13.32,0.053,221.2
2019-06-01T08:58:01,42.805,6.029,-0.019,-0.023,-0.037,101.0,102.0,98.0,13.4,1505.3,324.0,-0.7,1.8,2470.107,13.32,0.029,219.6
2019-06-01T09:01:02,42.805,6.029,-0.013,-0.01,-0.019,101.0,102.0,98.0,13.4,1505.3,324.1,-0.7,1.8,2470.088,13.32,0.016,232.4
2019-06-01T09:04:03,42.805,6.029,-0.007,-0.014,-0.034,100.0,103.0,98.0,13.3,1505.3,327.0,-0.7,1.9,2470.108,13.32,0.015,206.6
2019-06-01T09:07:04,42.805,6.029,-0.025,-0.016,-0.035,102.0,102.0,98.0,13.3,1505.3,325.8,-0.7,1.9,2470.076,13.32,0.029,237.4
2019-06-01T09:10:05,42.805,6.029,-0.027,0.01,-0.052,102.0,101.0,98.0,13.4,1505.3,325.1,-0.7,1.8,2470.089,13.32,0.028,290.3
2019-06-01T09:13:06,42.805,6.029,-0.024,-0.022,-0.026,101.0,102.0,99.0,13.4,1505.3,326.0,-0.7,1.9,2470.091,13.32,0.032,227.5
2019-06-01T09:16:07,42.805,6.029,-0.044,-0.024,-0.027,101.0,101.0,98.0,13.4,1505.3,323.7,-0.7,1.8,2470.043,13.32,0.05,241.4
2019-06-01T09:19:08,42.805,6.029,-0.051,-0.045,-0.028,101.0,101.0,99.0,13.3,1505.3,324.2,-0.8,1.9,2470.09,13.32,0.068,228.6
2019-06-01T09:22:09,42.805,6.029,-0.039,-0.037,-0.018,101.0,101.0,97.0,13.4,1505.3,323.3,-0.7,1.9,2470.063,13.32,0.053,226.5
2019-06-01T09:25:10,42.805,6.029,-0.03,-0.02,-0.05,101.0,103.0,98.0,13.4,1505.3,327.1,-0.7,1.8,2470.055,13.32,0.036,236.3
2019-06-01T09:28:11,42.805,6.029,-0.033,-0.033,-0.02,101.0,101.0,98.0,13.4,1505.3,327.4,-0.8,1.9,2470.053,13.32,0.046,225.0
2019-06-01T09:31:12,42.805,6.029,-0.036,-0.023,-0.02,101.0,101.0,97.0,13.3,1505.3,326.4,-0.7,1.9,2470.045,13.32,0.042,237.4
2019-06-01T09:34:13,42.805,6.029,-0.023,-0.01,-0.006,100.0,102.0,98.0,13.3,1505.3,327.3,-0.7,1.9,2470.073,13.32,0.025,246.5